Find Starlink 38215

NORAD ID: 100305 Int'l Des: 2026-184 Owner: SPXS Country: US Constellation: starlink operational

Current View

Loading 3D Globe...

About Starlink 38215

Starlink 38215 (NORAD 100305) is a starlink constellation satellite launched Aug 12, 2026 by SPXS of US. with a mass of 575.00 kg.

Upcoming Passes

Passes for default location (London). Set your location on the main map for personalized predictions.

Altitude History

Loading altitude history...

Two-Line Element Set

1 A0305U 26184E 26254.60579328 -.00633402 00000-0 -20514-1 0 9991
2 A0305 97.2831 119.7959 0002204 113.6378 246.5097 15.34251229 5998
Epoch: Sep 11, 2026 • Age: 9 hours

Current Status

Altitude 489.8 km
Apogee / Perigee N/A
Velocity 7.62 km/s
Sub-Earth Point -61.49°S, 147.78°E
Launch Date Aug 12, 2026
Age 30 days
Type internet

Technical Details

Classification Payload
Mass 575.00 kg
Dry Mass 530.00 kg
Total Mass 575.00 kg
Length 0.30 m
Diameter 4.10 m
Span 29.00 m
Shape Box + pan
Manufacturer SPXS
Bus Type Starlink V2MO
Phase Status In Orbit
Owner/State SPXS/US

Most Searched